STARLINK-4213 (52872 NORAD) Tracking and Keplerian Element Data

This shows tracking and keplerian element data for the satellite.

Feedback or suggestion? Click here.




ElementValue
Catalog52872
NameSTARLINK-4213
Epoch Orbit1642
Epoch Day270.25001157
Epoch Year2022
RAAN267.968
Inclination53.2127
Eccentricity0.000184
Argument of Perigee40.921
Mean Anonmoly147.4435
Mean Motion15.0888221
Decay Rate-0.00051846
L11 52872U 22062AU 22270.25001157 -.00051846 00000+0 -32592-2 0 9998
L22 52872 53.2127 267.9680 0001840 40.9210 147.4435 15.08882210 16429

Live tracking and technical data element details for STARLINK-4213 (NORAD 52872). STARLINK-4213 can be tracked NOW for your location showing map with azimuth and elevation plus other details from your city location.

Track the satellite on the map from your city or location and see movement details for azimuth, elevation, latitude, longitude, range, height, and movement on the map or in text.







IsCatalogInMostPopularTable: catalog: 52872, numindb: 4
Update: records affected: 1



GetName: 52872 STARLINK-4213

Hit Count: updated at: Thu, 06 Oct 2022 03:18:48 GMT